Erie, PA

10:04 PM EST on November 16, 2019 (GMT -0500)
Erie International

Weather History for KERI - September, 2019

Change the Weather History Date:

Wednesday, September 4, 2019

  Actual Average Record
Temperature  
Mean Temperature 70 °F 68 °F  
Max Temperature 77 °F 76 °F 97 °F (1953)
Min Temperature 64 °F 60 °F 46 °F (1951)
Degree Days  
Heating Degree Days 0 1  
Month to date heating degree days 0 4  
Since 1 July heating degree days 1 22  
Cooling Degree Days 6 4  
Month to date cooling degree days 25 16  
Year to date cooling degree days 715 574  
Growing Degree Days 20 (Base 50)    
Moisture  
Dew Point 60 °F    
Average Humidity 69    
Maximum Humidity 84    
Minimum Humidity 56    
Precipitation  
Precipitation 0.05 in 0.13 in 2.69 in (1944)
Month to date precipitation 1.30 0.52  
Year to date precipitation 27.62 26.35  
Snow  
Snow 0.00 in 0.00 in - ()
Month to date snowfall 0.0 0.0  
Since 1 July snowfall 0.0 0.0  
Since 1 September snowfall 0.0 0.0  
Snow Depth 0.00 in    
Sea Level Pressure  
Sea Level Pressure 29.93 in    
Wind  
Wind Speed 12 mph ()    
Max Wind Speed 23 mph    
Max Gust Speed 33 mph    
Visibility 9.7 miles    
Events Rain , Thunderstorm    
T = Trace of Precipitation, MM = Missing Value Source: Averaged Metar Reports

Daily Weather History Graph

Daily Weather History Graph

Search for Another Location

Airport or City:

Astronomy

Sep. 04, 2019 Rise Set
Actual Time 6:49 AM EDT 7:49 PM EDT
Civil Twilight 6:20 AM EDT 8:18 PM EDT
Nautical Twilight 5:46 AM EDT 8:52 PM EDT
Astronomical Twilight 5:10 AM EDT 9:27 PM EDT
Moon 12:54 PM EDT (9/4) 11:16 PM EDT (9/4)
Length of Visible Light 13h 57m
Length of Day
13h 00m
Waxing Crescent, 34% of the Moon is Illuminated
Sep 4
Waxing Crescent
Sep 5
First Quarter
Sep 14
Full
Sep 21
Last Quarter
Sep 28
New

Hourly Weather History & Observations

Time (EDT) Temp. Dew Point Humidity Pressure Visibility Wind Dir Wind Speed Gust Speed Precip Events Conditions
12:51 AM 77.0 °F 63.0 °F 62% 29.81 in 10.0 mi SSW 23.0 mph 33.4 mph N/A   Mostly Cloudy
1:51 AM 75.9 °F 63.0 °F 64% 29.80 in 10.0 mi South 16.1 mph 24.2 mph N/A   Mostly Cloudy
2:51 AM 75.9 °F 64.0 °F 67% 29.79 in 10.0 mi SSW 12.7 mph 24.2 mph N/A   Mostly Cloudy
3:21 AM 75.9 °F 64.0 °F 67% 29.79 in 10.0 mi SSW 15.0 mph - N/A   Overcast
3:51 AM 75.0 °F 66.0 °F 73% 29.78 in 7.0 mi SSW 18.4 mph 23.0 mph 0.00 in Rain Light Rain
4:09 AM 73.0 °F 66.9 °F 81% 29.79 in 5.0 mi SW 16.1 mph 23.0 mph 0.02 in Rain , Thunderstorm Thunderstorms and Rain
4:18 AM 73.0 °F 66.9 °F 81% 29.80 in 7.0 mi WSW 10.4 mph 23.0 mph 0.05 in Rain , Thunderstorm Light Thunderstorms and Rain
4:30 AM 73.0 °F 66.0 °F 79% 29.79 in 10.0 mi SW 10.4 mph 19.6 mph 0.05 in Thunderstorm Scattered Clouds
4:40 AM 72.0 °F 64.9 °F 78% 29.80 in 9.0 mi SSW 11.5 mph - 0.05 in Rain Light Rain
4:51 AM 71.1 °F 64.9 °F 81% 29.79 in 10.0 mi SSW 12.7 mph - 0.05 in   Scattered Clouds
5:51 AM 73.0 °F 66.9 °F 81% 29.80 in 10.0 mi SW 12.7 mph - 0.00 in   Mostly Cloudy
5:58 AM 73.0 °F 66.9 °F 81% 29.82 in 10.0 mi SW 10.4 mph - N/A   Mostly Cloudy
6:51 AM 73.0 °F 66.9 °F 81% 29.84 in 10.0 mi West 6.9 mph - N/A   Overcast
7:38 AM 72.0 °F 66.9 °F 84% 29.88 in 10.0 mi West 9.2 mph - N/A   Overcast
7:48 AM 71.6 °F 66.2 °F 83% 29.89 in 10.0 mi West 9.2 mph 17.3 mph N/A   Overcast
7:51 AM 72.0 °F 66.0 °F 81% 29.88 in 10.0 mi West 9.2 mph 17.3 mph N/A   Overcast
8:19 AM 72.0 °F 64.9 °F 78% 29.90 in 10.0 mi West 9.2 mph - N/A   Overcast
8:51 AM 73.0 °F 62.1 °F 68% 29.90 in 10.0 mi West 5.8 mph - N/A   Mostly Cloudy
9:11 AM 73.0 °F 64.0 °F 73% 29.91 in 10.0 mi West 6.9 mph - N/A   Mostly Cloudy
9:48 AM 71.6 °F 60.8 °F 69% 29.93 in 10.0 mi WNW 12.7 mph 23.0 mph N/A   Mostly Cloudy
9:51 AM 72.0 °F 60.1 °F 66% 29.92 in 10.0 mi WNW 10.4 mph 23.0 mph N/A   Mostly Cloudy
10:19 AM 72.0 °F 59.0 °F 64% 29.95 in 10.0 mi WNW 13.8 mph - N/A   Mostly Cloudy
10:51 AM 72.0 °F 59.0 °F 64% 29.95 in 10.0 mi WNW 13.8 mph - N/A   Mostly Cloudy
11:12 AM 71.1 °F 59.0 °F 66% 29.97 in 10.0 mi WNW 12.7 mph 19.6 mph N/A   Mostly Cloudy
11:51 AM 70.0 °F 57.9 °F 65% 29.98 in 10.0 mi WNW 15.0 mph 19.6 mph N/A   Overcast
12:51 PM 70.0 °F 57.0 °F 63% 29.99 in 10.0 mi WNW 11.5 mph 21.9 mph N/A   Overcast
1:51 PM 70.0 °F 55.0 °F 59% 30.02 in 10.0 mi WNW 9.2 mph 18.4 mph N/A   Overcast
2:17 PM 69.1 °F 54.0 °F 58% 30.04 in 10.0 mi West 10.4 mph - N/A   Overcast
2:51 PM 69.1 °F 54.0 °F 58% 30.04 in 10.0 mi WNW 12.7 mph - N/A   Overcast
3:51 PM 69.1 °F 55.0 °F 61% 30.04 in 10.0 mi WNW 11.5 mph - N/A   Overcast
4:42 PM 68.0 °F 55.0 °F 63% 30.06 in 10.0 mi WNW 11.5 mph - N/A   Overcast
4:51 PM 68.0 °F 55.0 °F 63% 30.05 in 10.0 mi NW 10.4 mph - N/A   Overcast
5:10 PM 66.9 °F 55.0 °F 66% 30.06 in 10.0 mi NW 9.2 mph - N/A   Overcast
5:51 PM 66.9 °F 54.0 °F 63% 30.06 in 10.0 mi WNW 10.4 mph - N/A   Overcast
6:51 PM 66.9 °F 54.0 °F 63% 30.07 in 10.0 mi NW 9.2 mph - N/A   Overcast
7:51 PM 66.9 °F 53.1 °F 61% 30.09 in 10.0 mi NW 9.2 mph - N/A   Overcast
8:51 PM 66.0 °F 50.0 °F 56% 30.10 in 10.0 mi NNW 6.9 mph - N/A   Mostly Cloudy
9:51 PM 66.0 °F 53.1 °F 63% 30.11 in 10.0 mi NNW 8.1 mph - N/A   Overcast
10:51 PM 64.9 °F 51.1 °F 61% 30.10 in 10.0 mi NW 4.6 mph - N/A   Partly Cloudy
11:51 PM 64.0 °F 52.0 °F 65% 30.10 in 10.0 mi North 6.9 mph - N/A   Clear